• Join FlightAware (Why Join?)
  • Login
  • US Flag 
12:47PM EST


 

Airport Tracker/Info


-or-


 

Live Flight TrackerFlight Track Log ✈ EJM826 ✈ 29-Jul-2013 ✈ KHOU - KSAT

Flight Track Log - Related Links

Times and Time Zones

All times are in EDT time to prevent confusion due to time zone crossing. See the EJM826 flight status page for this flight to view local times or setup timezone preferences in your user account.

Time Position Orientation Groundspeed Altitude Reporting Facility
EDT Latitude Longitude Course Direction KTS MPH feet Rate Location/Type
07:42AM 29.6289 -95.2633 191° South 162 186 600  Level Houston Center
07:43AM 29.6019 -95.2692 191° South 187 215 1,700 2,165 Climbing Houston Center
07:44AM 29.5600 -95.3150 224° Southwest 208 239 4,100 2,016 Climbing Houston Center
07:45AM 29.5175 -95.3778 232° Southwest 264 304 5,800 1,691 Climbing Houston Center
07:46AM 29.5314 -95.4350 286° West 276 318 7,200 1,909 Climbing Houston Center
07:47AM 29.5556 -95.5256 287° West 292 336 9,300 1,918 Climbing Houston Center
07:48AM 29.5825 -95.6172 289° West 300 345 11,100 1,869 Climbing Houston Center
07:49AM 29.6150 -95.7103 292° West 312 359 13,100 1,820 Climbing Houston Center
07:50AM 29.6486 -95.8061 292° West 322 371 14,800 1,659 Climbing Houston Center
07:51AM 29.6900 -95.9253 292° West 334 384 16,500 1,415 Climbing Houston Center
07:52AM 29.7219 -96.0189 291° West 343 395 17,700 1,180 Climbing Houston Center
07:53AM 29.7578 -96.1222 292° West 350 403 18,900 1,180 Climbing Houston Center
07:54AM 29.7822 -96.2322 284° West 359 413 20,100 1,171 Climbing Houston Center
07:55AM 29.7906 -96.3472 275° West 362 417 21,300 1,317 Climbing Houston Center
07:56AM 29.8019 -96.4883 275° West 370 426 22,800 1,279 Climbing Houston Center
07:57AM 29.8100 -96.6056 275° West 371 427 23,900 1,033 Climbing Houston Center
07:58AM 29.8189 -96.7236 275° West 375 432 24,900 1,220 Climbing Houston Center
07:59AM 29.8275 -96.8436 275° West 379 436 26,400 1,610 Climbing Houston Center
08:00AM 29.8358 -96.9578 275° West 364 419 28,200 1,574 Climbing Houston Center
08:01AM 29.8442 -97.0664 275° West 348 400 29,600 -393 Climbing Houston Center
08:02AM 29.8525 -97.1889 275° West 393 452 27,400 -2,780 Descending Houston Center
08:03AM 29.8642 -97.3567 275° West 440 506 23,900 -3,171 Descending Houston Center
08:04AM 29.8731 -97.5006 274° West 452 520 20,900 -2,951 Descending Houston Center
08:05AM 29.8825 -97.6442 274° West 446 513 17,900 -3,049 Descending Houston Center
08:06AM 29.8922 -97.7958 274° West 442 509 14,700 -2,585 Descending Houston Center
08:07AM 29.8747 -97.9214 261° West 396 456 12,600 -1,854 Descending Houston Center
08:08AM 29.8447 -98.0278 252° West 351 404 10,900 -1,770 Descending Houston Center
08:09AM 29.8189 -98.1236 253° West 318 366 9,000 -1,902 Descending Houston Center
08:10AM 29.7931 -98.2225 253° West 300 345 7,000 -1,463 Descending Houston Center
08:11AM 29.7742 -98.3064 255° West 273 314 6,000 -1,082 Descending Houston Center
08:12AM 29.7578 -98.3853 257° West 256 295 4,800 -976 Descending Houston Center
08:13AM 29.7419 -98.4647 257° West 248 285 4,000 -585 Descending Houston Center
08:14AM 29.7294 -98.5342 258° West 218 251 3,600 -488 Descending Houston Center
08:15AM 29.7003 -98.5978 242° Southwest 209 241 3,000 -293 Descending Houston Center
08:16AM 29.6581 -98.6236 208° Southwest 186 214 3,000  Level Houston Center
08:17AM 29.6208 -98.5861 139° Southeast 179 206 3,000 -341 Level Houston Center
08:18AM 29.5914 -98.5478 131° Southeast 165 190 2,300 -732 Descending Houston Center
08:19AM 29.5636 -98.5114 131° Southeast 145 167 1,500 -738 Descending Houston Center
08:20AM 29.5400 -98.4803 131° Southeast 135 155 800 -689 Descending Houston Center